| time (UTC) | temp C | wind direction | speed KPH | gust KPH | rain 1hr cm | rain 24hr cm | rain mn cm | humidity % | barometer mb |
| 20260906040053 | 18 | 0 | 0.0 | 3.2 | 0.00 | 0.03 | 0.00 | 77 | 1014.2 |
| 20260906035539 | 18 | 360 | 0.0 | 3.2 | 0.00 | 0.03 | 0.03 | 76 | 1014.1 |
| 20260906035038 | 18 | 0 | 0.0 | 3.2 | 0.00 | 0.03 | 0.03 | 76 | 1014.1 |
| 20260906034559 | 19 | 24 | 0.0 | 3.2 | 0.00 | 0.03 | 0.03 | 75 | 1014.0 |
| 20260906034039 | 19 | 0 | 0.0 | 3.2 | 0.00 | 0.03 | 0.03 | 76 | 1014.0 |
| 20260906033536 | 19 | 0 | 0.0 | 0.0 | 0.00 | 0.03 | 0.03 | 75 | 1013.9 |
| 20260906033056 | 19 | 0 | 0.0 | 0.0 | 0.00 | 0.03 | 0.03 | 74 | 1014.0 |
| 20260906032536 | 19 | 0 | 0.0 | 0.0 | 0.00 | 0.03 | 0.03 | 74 | 1014.0 |
| 20260906032036 | 19 | 0 | 0.0 | 0.0 | 0.00 | 0.03 | 0.03 | 74 | 1014.0 |
| 20260906031556 | 19 | 0 | 0.0 | 0.0 | 0.00 | 0.03 | 0.03 | 74 | 1014.0 |
| 20260906031037 | 19 | 0 | 0.0 | 0.0 | 0.00 | 0.03 | 0.03 | 74 | 1014.0 |
| 20260906030540 | 19 | 0 | 0.0 | 0.0 | 0.00 | 0.03 | 0.03 | 75 | 1013.9 |
| 20260906030134 | 19 | 0 | 0.0 | 0.0 | 0.00 | 0.03 | 0.03 | 74 | 1013.9 |
| 20260906025537 | 19 | 0 | 0.0 | 0.0 | 0.00 | 0.03 | 0.03 | 74 | 1013.8 |
| 20260906025037 | 19 | 0 | 0.0 | 0.0 | 0.00 | 0.03 | 0.03 | 72 | 1013.8 |
| 20260906024603 | 20 | 0 | 0.0 | 0.0 | 0.00 | 0.03 | 0.03 | 72 | 1013.8 |
| 20260906024037 | 20 | 0 | 0.0 | 3.2 | 0.00 | 0.03 | 0.03 | 72 | 1013.7 |
| 20260906023541 | 20 | 0 | 0.0 | 3.2 | 0.00 | 0.03 | 0.03 | 71 | 1013.7 |
| 20260906023103 | 20 | 26 | 0.0 | 3.2 | 0.00 | 0.03 | 0.03 | 71 | 1013.6 |
| 20260906022536 | 20 | 0 | 0.0 | 3.2 | 0.00 | 0.03 | 0.03 | 72 | 1013.6 |
| 20260906022036 | 20 | 0 | 0.0 | 1.6 | 0.00 | 0.03 | 0.03 | 72 | 1013.6 |
| 20260906021610 | 20 | 0 | 0.0 | 0.0 | 0.00 | 0.03 | 0.03 | 71 | 1013.6 |
| 20260906021036 | 20 | 0 | 0.0 | 0.0 | 0.00 | 0.03 | 0.03 | 70 | 1013.5 |
| 20260906020537 | 20 | 0 | 0.0 | 0.0 | 0.00 | 0.03 | 0.03 | 70 | 1013.5 |
| 20260906020107 | 20 | 0 | 0.0 | 0.0 | 0.00 | 0.03 | 0.03 | 70 | 1013.5 |
| 20260906015536 | 20 | 0 | 0.0 | 0.0 | 0.00 | 0.03 | 0.03 | 71 | 1013.4 |
| 20260906015037 | 20 | 0 | 0.0 | 0.0 | 0.00 | 0.03 | 0.03 | 71 | 1013.4 |
| 20260906014604 | 20 | 0 | 0.0 | 0.0 | 0.00 | 0.03 | 0.03 | 70 | 1013.3 |
| 20260906014034 | 20 | 0 | 0.0 | 0.0 | 0.00 | 0.03 | 0.03 | 69 | 1013.1 |
| 20260906013533 | 20 | 0 | 0.0 | 0.0 | 0.00 | 0.03 | 0.03 | 69 | 1013.1 |
| 20260906013058 | 21 | 0 | 0.0 | 1.6 | 0.00 | 0.03 | 0.03 | 68 | 1013.1 |
| 20260906012538 | 21 | 0 | 0.0 | 1.6 | 0.00 | 0.03 | 0.03 | 67 | 1012.9 |
| 20260906012038 | 21 | 0 | 0.0 | 1.6 | 0.00 | 0.03 | 0.03 | 67 | 1012.9 |
| 20260906011601 | 21 | 0 | 0.0 | 0.0 | 0.00 | 0.03 | 0.03 | 68 | 1013.0 |
| 20260906011033 | 21 | 0 | 0.0 | 3.2 | 0.00 | 0.03 | 0.03 | 67 | 1012.9 |
| 20260906010536 | 21 | 0 | 0.0 | 3.2 | 0.00 | 0.03 | 0.03 | 67 | 1012.9 |
| 20260906010059 | 21 | 0 | 0.0 | 3.2 | 0.00 | 0.03 | 0.03 | 66 | 1012.8 |
| 20260906005538 | 21 | 0 | 0.0 | 3.2 | 0.00 | 0.03 | 0.03 | 66 | 1012.7 |
| 20260906005036 | 21 | 0 | 0.0 | 3.2 | 0.00 | 0.03 | 0.03 | 66 | 1012.7 |
| 20260906004603 | 22 | 0 | 0.0 | 3.2 | 0.00 | 0.03 | 0.03 | 65 | 1012.6 |
| 20260906004034 | 22 | 0 | 0.0 | 3.2 | 0.00 | 0.03 | 0.03 | 65 | 1012.5 |
| 20260906003537 | 22 | 0 | 0.0 | 3.2 | 0.00 | 0.03 | 0.03 | 64 | 1012.5 |
| 20260906003106 | 22 | 0 | 0.0 | 3.2 | 0.00 | 0.03 | 0.03 | 64 | 1012.6 |
| 20260906002536 | 22 | 0 | 0.0 | 3.2 | 0.00 | 0.03 | 0.03 | 64 | 1012.5 |
| 20260906002037 | 22 | 32 | 0.0 | 1.6 | 0.00 | 0.03 | 0.03 | 63 | 1012.3 |
| 20260906001557 | 22 | 0 | 0.0 | 3.2 | 0.00 | 0.03 | 0.03 | 63 | 1012.4 |
| 20260906001035 | 22 | 0 | 0.0 | 3.2 | 0.00 | 0.03 | 0.03 | 62 | 1012.3 |
| 20260906000540 | 23 | 0 | 0.0 | 3.2 | 0.00 | 0.03 | 0.03 | 61 | 1012.3 |
| 20260906000057 | 23 | 0 | 0.0 | 3.2 | 0.00 | 0.03 | 0.03 | 61 | 1012.1 |
| 20260905235537 | 23 | 0 | 0.0 | 3.2 | 0.00 | 0.03 | 0.03 | 60 | 1012.1 |
| 20260905235037 | 23 | 0 | 0.0 | 3.2 | 0.00 | 0.03 | 0.03 | 59 | 1012.2 |
| 20260905234614 | 23 | 62 | 0.0 | 3.2 | 0.00 | 0.03 | 0.03 | 60 | 1012.1 |
| 20260905234039 | 23 | 64 | 1.6 | 3.2 | 0.00 | 0.03 | 0.03 | 59 | 1012.1 |
| 20260905233536 | 23 | 0 | 0.0 | 3.2 | 0.00 | 0.03 | 0.03 | 58 | 1012.1 |
| 20260905233056 | 23 | 79 | 1.6 | 4.8 | 0.00 | 0.03 | 0.03 | 58 | 1012.1 |
| 20260905232538 | 23 | 71 | 1.6 | 8.0 | 0.00 | 0.03 | 0.03 | 57 | 1012.1 |
| 20260905232036 | 23 | 61 | 1.6 | 8.0 | 0.00 | 0.03 | 0.03 | 56 | 1012.0 |
| 20260905231558 | 24 | 66 | 1.6 | 8.0 | 0.00 | 0.03 | 0.03 | 57 | 1012.0 |
| 20260905231039 | 24 | 78 | 3.2 | 9.7 | 0.00 | 0.03 | 0.03 | 56 | 1011.9 |
| 20260905230537 | 24 | 79 | 1.6 | 9.7 | 0.00 | 0.03 | 0.03 | 56 | 1011.8 |
| 20260905230057 | 24 | 59 | 3.2 | 6.4 | 0.00 | 0.03 | 0.03 | 55 | 1011.8 |
| 20260905225536 | 25 | 59 | 1.6 | 6.4 | 0.00 | 0.03 | 0.03 | 55 | 1012.0 |
| 20260905225037 | 25 | 88 | 3.2 | 6.4 | 0.00 | 0.03 | 0.03 | 55 | 1011.9 |
| 20260905224609 | 25 | 53 | 1.6 | 8.0 | 0.00 | 0.03 | 0.03 | 54 | 1011.8 |
| 20260905224035 | 25 | 75 | 3.2 | 8.0 | 0.00 | 0.03 | 0.03 | 53 | 1011.6 |
| 20260905223536 | 25 | 74 | 1.6 | 8.0 | 0.00 | 0.03 | 0.03 | 53 | 1011.7 |
| 20260905223059 | 25 | 91 | 1.6 | 6.4 | 0.00 | 0.03 | 0.03 | 54 | 1011.8 |
| 20260905222537 | 25 | 360 | 0.0 | 6.4 | 0.00 | 0.03 | 0.03 | 54 | 1011.7 |
| 20260905222036 | 25 | 0 | 1.6 | 8.0 | 0.00 | 0.03 | 0.03 | 53 | 1011.7 |
| 20260905221555 | 25 | 41 | 3.2 | 8.0 | 0.00 | 0.03 | 0.03 | 54 | 1011.6 |
| 20260905221034 | 25 | 80 | 3.2 | 11.3 | 0.00 | 0.03 | 0.03 | 53 | 1011.5 |
| 20260905220540 | 26 | 126 | 3.2 | 11.3 | 0.00 | 0.03 | 0.03 | 53 | 1011.5 |
| 20260905220058 | 26 | 76 | 3.2 | 8.0 | 0.00 | 0.03 | 0.03 | 52 | 1011.5 |
| 20260905215537 | 26 | 64 | 3.2 | 8.0 | 0.00 | 0.03 | 0.03 | 52 | 1011.4 |
| 20260905215035 | 26 | 74 | 1.6 | 9.7 | 0.00 | 0.03 | 0.03 | 52 | 1011.5 |
| 20260905214611 | 26 | 117 | 1.6 | 12.9 | 0.00 | 0.03 | 0.03 | 52 | 1011.5 |
| 20260905214036 | 26 | 81 | 3.2 | 12.9 | 0.00 | 0.03 | 0.03 | 51 | 1011.5 |
| 20260905213538 | 26 | 86 | 4.8 | 12.9 | 0.00 | 0.03 | 0.03 | 50 | 1011.5 |
| 20260905213106 | 26 | 74 | 3.2 | 6.4 | 0.00 | 0.03 | 0.03 | 51 | 1011.4 |
| 20260905212537 | 26 | 40 | 3.2 | 11.3 | 0.00 | 0.03 | 0.03 | 50 | 1011.5 |
| 20260905212036 | 26 | 75 | 3.2 | 11.3 | 0.00 | 0.03 | 0.03 | 50 | 1011.3 |
| 20260905211603 | 26 | 35 | 4.8 | 14.5 | 0.00 | 0.03 | 0.03 | 50 | 1011.4 |
| 20260905211038 | 26 | 81 | 3.2 | 14.5 | 0.00 | 0.03 | 0.03 | 50 | 1011.5 |
| 20260905210537 | 26 | 82 | 3.2 | 12.9 | 0.00 | 0.03 | 0.03 | 50 | 1011.4 |
| 20260905210100 | 26 | 125 | 3.2 | 9.7 | 0.00 | 0.03 | 0.03 | 50 | 1011.4 |
| 20260905205537 | 26 | 108 | 3.2 | 12.9 | 0.00 | 0.03 | 0.03 | 50 | 1011.5 |
| 20260905205038 | 26 | 350 | 3.2 | 12.9 | 0.00 | 0.03 | 0.03 | 49 | 1011.5 |
| 20260905204558 | 26 | 83 | 3.2 | 11.3 | 0.00 | 0.03 | 0.03 | 48 | 1011.5 |
| 20260905204037 | 26 | 88 | 4.8 | 9.7 | 0.00 | 0.03 | 0.03 | 49 | 1011.5 |
| 20260905203540 | 26 | 74 | 3.2 | 9.7 | 0.00 | 0.03 | 0.03 | 49 | 1011.5 |
| 20260905203050 | 26 | 96 | 3.2 | 14.5 | 0.00 | 0.03 | 0.03 | 50 | 1011.6 |
| 20260905202537 | 26 | 95 | 4.8 | 14.5 | 0.00 | 0.03 | 0.03 | 51 | 1011.5 |
| 20260905202039 | 26 | 195 | 1.6 | 11.3 | 0.00 | 0.03 | 0.03 | 50 | 1011.5 |
| 20260905201603 | 26 | 76 | 3.2 | 12.9 | 0.00 | 0.03 | 0.03 | 50 | 1011.6 |
| 20260905201037 | 26 | 40 | 3.2 | 14.5 | 0.00 | 0.03 | 0.03 | 49 | 1011.7 |
| 20260905200536 | 26 | 62 | 3.2 | 14.5 | 0.00 | 0.03 | 0.03 | 49 | 1011.6 |
| 20260905200059 | 26 | 68 | 1.6 | 9.7 | 0.00 | 0.03 | 0.03 | 52 | 1011.5 |
| 20260905195539 | 26 | 286 | 1.6 | 9.7 | 0.00 | 0.03 | 0.03 | 53 | 1011.7 |
| 20260905195037 | 26 | 99 | 3.2 | 8.0 | 0.00 | 0.03 | 0.03 | 52 | 1011.6 |
| 20260905194557 | 26 | 86 | 3.2 | 8.0 | 0.00 | 0.03 | 0.03 | 53 | 1011.7 |
| 20260905194038 | 26 | 99 | 3.2 | 8.0 | 0.00 | 0.03 | 0.03 | 52 | 1011.7 |
| 20260905193536 | 26 | 56 | 3.2 | 12.9 | 0.00 | 0.03 | 0.03 | 54 | 1011.7 |
| 20260905193058 | 25 | 122 | 3.2 | 12.9 | 0.00 | 0.03 | 0.03 | 56 | 1011.7 |
| 20260905192536 | 25 | 78 | 4.8 | 12.9 | 0.00 | 0.03 | 0.03 | 53 | 1011.7 |
| 20260905192036 | 26 | 78 | 4.8 | 11.3 | 0.00 | 0.03 | 0.03 | 53 | 1011.7 |
| 20260905191612 | 26 | 244 | 1.6 | 9.7 | 0.00 | 0.03 | 0.03 | 54 | 1011.7 |
| 20260905191041 | 26 | 308 | 1.6 | 12.9 | 0.00 | 0.03 | 0.03 | 55 | 1011.8 |
| 20260905190538 | 25 | 46 | 4.8 | 12.9 | 0.00 | 0.03 | 0.03 | 55 | 1011.7 |
| 20260905190053 | 25 | 86 | 3.2 | 14.5 | 0.00 | 0.03 | 0.03 | 55 | 1011.8 |
| 20260905185537 | 25 | 61 | 3.2 | 14.5 | 0.00 | 0.03 | 0.03 | 54 | 1011.8 |
| 20260905185037 | 26 | 12 | 3.2 | 12.9 | 0.00 | 0.03 | 0.03 | 53 | 1011.9 |
| 20260905184614 | 26 | 64 | 4.8 | 14.5 | 0.00 | 0.03 | 0.03 | 52 | 1011.9 |
| 20260905184037 | 26 | 51 | 4.8 | 14.5 | 0.00 | 0.03 | 0.03 | 52 | 1012.0 |
| 20260905183540 | 26 | 35 | 3.2 | 12.9 | 0.00 | 0.03 | 0.03 | 53 | 1012.0 |
| 20260905183106 | 26 | 50 | 4.8 | 12.9 | 0.00 | 0.03 | 0.03 | 53 | 1012.1 |
| 20260905182538 | 26 | 130 | 3.2 | 17.7 | 0.00 | 0.03 | 0.03 | 54 | 1012.1 |
| 20260905182037 | 26 | 52 | 4.8 | 17.7 | 0.00 | 0.03 | 0.03 | 56 | 1012.2 |
| 20260905181555 | 26 | 70 | 6.4 | 17.7 | 0.00 | 0.03 | 0.03 | 52 | 1012.2 |
| 20260905181036 | 26 | 74 | 3.2 | 12.9 | 0.00 | 0.03 | 0.03 | 55 | 1012.3 |
| 20260905180533 | 25 | 116 | 1.6 | 14.5 | 0.00 | 0.03 | 0.03 | 56 | 1012.2 |
| 20260905180056 | 25 | 84 | 6.4 | 14.5 | 0.00 | 0.03 | 0.03 | 54 | 1012.3 |
| 20260905175535 | 25 | 79 | 4.8 | 14.5 | 0.00 | 0.03 | 0.03 | 58 | 1012.3 |
| 20260905175037 | 25 | 221 | 1.6 | 6.4 | 0.03 | 0.03 | 0.03 | 57 | 1012.3 |
| 20260905174607 | 25 | 92 | 1.6 | 8.0 | 0.03 | 0.03 | 0.03 | 54 | 1012.3 |
| 20260905174037 | 26 | 78 | 3.2 | 8.0 | 0.03 | 0.03 | 0.03 | 56 | 1012.3 |
| 20260905173535 | 26 | 87 | 3.2 | 12.9 | 0.03 | 0.03 | 0.03 | 59 | 1012.3 |
| 20260905173109 | 25 | 102 | 6.4 | 12.9 | 0.03 | 0.03 | 0.03 | 57 | 1012.3 |
| 20260905172538 | 26 | 63 | 3.2 | 6.4 | 0.03 | 0.03 | 0.03 | 58 | 1012.4 |
| 20260905172037 | 26 | 296 | 1.6 | 14.5 | 0.03 | 0.03 | 0.03 | 54 | 1012.4 |
| 20260905171558 | 26 | 269 | 1.6 | 14.5 | 0.03 | 0.03 | 0.03 | 55 | 1012.5 |
| 20260905171037 | 25 | 306 | 3.2 | 14.5 | 0.03 | 0.03 | 0.03 | 57 | 1012.7 |
| 20260905170537 | 25 | 55 | 3.2 | 11.3 | 0.03 | 0.03 | 0.03 | 57 | 1012.7 |
| 20260905170053 | 25 | 13 | 1.6 | 11.3 | 0.03 | 0.03 | 0.03 | 58 | 1012.7 |
| 20260905165537 | 25 | 128 | 4.8 | 11.3 | 0.03 | 0.03 | 0.03 | 56 | 1012.7 |
| 20260905165038 | 25 | 76 | 3.2 | 9.7 | 0.00 | 0.00 | 0.00 | 59 | 1012.7 |
| 20260905164558 | 25 | 80 | 1.6 | 6.4 | 0.00 | 0.00 | 0.00 | 59 | 1012.7 |
| 20260905164034 | 25 | 115 | 3.2 | 6.4 | 0.00 | 0.00 | 0.00 | 59 | 1012.7 |
| 20260905163536 | 25 | 319 | 1.6 | 6.4 | 0.00 | 0.00 | 0.00 | 58 | 1012.8 |
| 20260905163105 | 25 | 76 | 1.6 | 6.4 | 0.00 | 0.00 | 0.00 | 59 | 1012.9 |
| 20260905162535 | 25 | 270 | 1.6 | 11.3 | 0.00 | 0.00 | 0.00 | 61 | 1013.0 |
| 20260905162038 | 25 | 270 | 1.6 | 11.3 | 0.00 | 0.00 | 0.00 | 60 | 1013.2 |
| 20260905161558 | 25 | 78 | 3.2 | 9.7 | 0.00 | 0.00 | 0.00 | 59 | 1013.2 |
| 20260905161037 | 25 | 58 | 3.2 | 11.3 | 0.00 | 0.00 | 0.00 | 59 | 1013.3 |
| 20260905160537 | 25 | 99 | 4.8 | 11.3 | 0.00 | 0.00 | 0.00 | 56 | 1013.3 |
| 20260905160058 | 25 | 74 | 3.2 | 9.7 | 0.00 | 0.00 | 0.00 | 57 | 1013.3 |
| 20260905155539 | 25 | 80 | 3.2 | 9.7 | 0.00 | 0.00 | 0.00 | 59 | 1013.4 |
| 20260905155036 | 25 | 263 | 1.6 | 9.7 | 0.00 | 0.00 | 0.00 | 60 | 1013.3 |
| 20260905154604 | 25 | 69 | 4.8 | 9.7 | 0.00 | 0.00 | 0.00 | 61 | 1013.4 |
| 20260905154037 | 25 | 35 | 4.8 | 9.7 | 0.00 | 0.00 | 0.00 | 59 | 1013.5 |
| 20260905153533 | 25 | 71 | 3.2 | 9.7 | 0.00 | 0.00 | 0.00 | 59 | 1013.4 |
| 20260905153059 | 25 | 88 | 1.6 | 6.4 | 0.00 | 0.00 | 0.00 | 62 | 1013.4 |
| 20260905152537 | 25 | 55 | 1.6 | 6.4 | 0.00 | 0.00 | 0.00 | 61 | 1013.4 |
| 20260905152037 | 24 | 0 | 1.6 | 6.4 | 0.00 | 0.00 | 0.00 | 62 | 1013.4 |
| 20260905151602 | 24 | 51 | 3.2 | 11.3 | 0.00 | 0.00 | 0.00 | 62 | 1013.4 |
| 20260905151041 | 24 | 78 | 3.2 | 12.9 | 0.00 | 0.00 | 0.00 | 62 | 1013.5 |
| 20260905150538 | 24 | 49 | 4.8 | 12.9 | 0.00 | 0.00 | 0.00 | 63 | 1013.5 |
| 20260905150057 | 24 | 70 | 3.2 | 6.4 | 0.00 | 0.00 | 0.00 | 63 | 1013.5 |
| 20260905145535 | 23 | 117 | 3.2 | 9.7 | 0.00 | 0.00 | 0.00 | 64 | 1013.3 |
| 20260905145036 | 23 | 50 | 3.2 | 11.3 | 0.00 | 0.00 | 0.00 | 64 | 1013.3 |
| 20260905144555 | 23 | 92 | 4.8 | 12.9 | 0.00 | 0.00 | 0.00 | 63 | 1013.3 |
| 20260905144037 | 23 | 77 | 4.8 | 11.3 | 0.00 | 0.00 | 0.00 | 65 | 1013.4 |
| 20260905143537 | 23 | 144 | 3.2 | 8.0 | 0.00 | 0.00 | 0.00 | 67 | 1013.3 |
| 20260905143058 | 23 | 86 | 1.6 | 8.0 | 0.00 | 0.00 | 0.00 | 68 | 1013.2 |
| 20260905142536 | 23 | 213 | 1.6 | 8.0 | 0.00 | 0.00 | 0.00 | 68 | 1013.1 |
| 20260905142040 | 23 | 96 | 3.2 | 6.4 | 0.00 | 0.00 | 0.00 | 68 | 1013.0 |
| 20260905141610 | 23 | 242 | 3.2 | 4.8 | 0.00 | 0.00 | 0.00 | 69 | 1012.9 |
| 20260905141039 | 23 | 70 | 1.6 | 6.4 | 0.00 | 0.00 | 0.00 | 69 | 1012.8 |
| 20260905140539 | 23 | 91 | 1.6 | 6.4 | 0.00 | 0.00 | 0.00 | 71 | 1012.9 |
| 20260905135535 | 22 | 71 | 1.6 | 6.4 | 0.00 | 0.00 | 0.00 | 72 | 1012.9 |
| 20260905135038 | 22 | 76 | 3.2 | 8.0 | 0.00 | 0.00 | 0.00 | 71 | 1013.0 |
| 20260905134605 | 22 | 78 | 1.6 | 8.0 | 0.00 | 0.00 | 0.00 | 71 | 1013.0 |
| 20260905134035 | 22 | 67 | 1.6 | 8.0 | 0.00 | 0.00 | 0.00 | 71 | 1013.1 |
| 20260905133536 | 22 | 75 | 1.6 | 8.0 | 0.00 | 0.00 | 0.00 | 72 | 1013.2 |
| 20260905133101 | 22 | 44 | 3.2 | 8.0 | 0.00 | 0.00 | 0.00 | 72 | 1013.3 |
| 20260905132537 | 22 | 82 | 1.6 | 6.4 | 0.00 | 0.00 | 0.00 | 72 | 1013.3 |
| 20260905132036 | 22 | 34 | 0.0 | 6.4 | 0.00 | 0.00 | 0.00 | 73 | 1013.3 |
| 20260905131600 | 22 | 34 | 1.6 | 6.4 | 0.00 | 0.00 | 0.00 | 72 | 1013.3 |
| 20260905131037 | 22 | 34 | 3.2 | 6.4 | 0.00 | 0.00 | 0.00 | 73 | 1013.2 |
| 20260905130537 | 22 | 28 | 0.0 | 4.8 | 0.00 | 0.00 | 0.00 | 74 | 1013.1 |
| 20260905130058 | 22 | 0 | 0.0 | 4.8 | 0.00 | 0.00 | 0.00 | 73 | 1013.2 |
| 20260905125537 | 22 | 28 | 1.6 | 4.8 | 0.00 | 0.00 | 0.00 | 74 | 1013.2 |
| 20260905125038 | 22 | 28 | 1.6 | 4.8 | 0.00 | 0.00 | 0.00 | 73 | 1013.1 |
| 20260905124605 | 22 | 28 | 0.0 | 4.8 | 0.00 | 0.00 | 0.00 | 74 | 1012.9 |
| 20260905124038 | 22 | 28 | 0.0 | 4.8 | 0.00 | 0.00 | 0.00 | 74 | 1012.9 |
| 20260905123535 | 22 | 28 | 1.6 | 4.8 | 0.00 | 0.00 | 0.00 | 74 | 1012.9 |
| 20260905123101 | 22 | 28 | 0.0 | 4.8 | 0.00 | 0.00 | 0.00 | 75 | 1012.8 |
| 20260905122537 | 22 | 26 | 1.6 | 4.8 | 0.00 | 0.00 | 0.00 | 75 | 1012.7 |
| 20260905122037 | 22 | 26 | 1.6 | 4.8 | 0.00 | 0.00 | 0.00 | 76 | 1012.7 |
| 20260905121558 | 21 | 26 | 0.0 | 3.2 | 0.00 | 0.00 | 0.00 | 76 | 1012.9 |
| 20260905121038 | 21 | 26 | 0.0 | 3.2 | 0.00 | 0.00 | 0.00 | 76 | 1012.9 |
| 20260905120542 | 21 | 26 | 0.0 | 3.2 | 0.00 | 0.00 | 0.00 | 76 | 1012.9 |
| 20260905120059 | 21 | 26 | 1.6 | 3.2 | 0.00 | 0.00 | 0.00 | 76 | 1013.0 |
| 20260905115541 | 21 | 0 | 0.0 | 3.2 | 0.00 | 0.00 | 0.00 | 76 | 1013.0 |
| 20260905115039 | 21 | 0 | 0.0 | 4.8 | 0.00 | 0.00 | 0.00 | 76 | 1012.9 |
| 20260905114625 | 21 | 0 | 1.6 | 4.8 | 0.00 | 0.00 | 0.00 | 76 | 1012.8 |
| 20260905114038 | 21 | 26 | 1.6 | 4.8 | 0.00 | 0.00 | 0.00 | 76 | 1012.5 |
| 20260905113537 | 21 | 22 | 0.0 | 3.2 | 0.00 | 0.00 | 0.00 | 77 | 1012.4 |
| 20260905113102 | 21 | 22 | 0.0 | 4.8 | 0.00 | 0.00 | 0.00 | 76 | 1012.3 |
| 20260905112538 | 21 | 22 | 1.6 | 4.8 | 0.00 | 0.00 | 0.00 | 76 | 1012.4 |
| 20260905112038 | 21 | 22 | 1.6 | 4.8 | 0.00 | 0.00 | 0.00 | 76 | 1012.4 |
| 20260905111558 | 21 | 22 | 1.6 | 4.8 | 0.00 | 0.00 | 0.00 | 76 | 1012.3 |
| 20260905111038 | 21 | 22 | 1.6 | 3.2 | 0.00 | 0.00 | 0.00 | 76 | 1012.3 |
| 20260905110539 | 21 | 22 | 1.6 | 3.2 | 0.00 | 0.00 | 0.00 | 76 | 1012.3 |
| 20260905110056 | 21 | 0 | 0.0 | 3.2 | 0.00 | 0.00 | 0.00 | 76 | 1012.4 |
| 20260905105538 | 21 | 0 | 0.0 | 3.2 | 0.00 | 0.00 | 0.00 | 76 | 1012.3 |
| 20260905105038 | 21 | 22 | 0.0 | 3.2 | 0.00 | 0.00 | 0.00 | 76 | 1012.3 |
| 20260905104553 | 21 | 22 | 1.6 | 3.2 | 0.00 | 0.00 | 0.00 | 76 | 1012.0 |
| 20260905104037 | 21 | 22 | 1.6 | 3.2 | 0.00 | 0.00 | 0.00 | 76 | 1012.0 |
| 20260905103538 | 21 | 22 | 0.0 | 3.2 | 0.00 | 0.00 | 0.00 | 76 | 1012.0 |
| 20260905103055 | 21 | 22 | 0.0 | 3.2 | 0.00 | 0.00 | 0.00 | 76 | 1011.9 |
| 20260905102537 | 21 | 22 | 1.6 | 3.2 | 0.00 | 0.00 | 0.00 | 76 | 1011.9 |
| 20260905102038 | 21 | 22 | 0.0 | 4.8 | 0.00 | 0.00 | 0.00 | 76 | 1011.9 |
| 20260905101552 | 21 | 0 | 1.6 | 4.8 | 0.00 | 0.00 | 0.00 | 76 | 1011.8 |
| 20260905101040 | 21 | 22 | 0.0 | 3.2 | 0.00 | 0.00 | 0.00 | 76 | 1011.8 |
| 20260905100538 | 21 | 22 | 1.6 | 3.2 | 0.00 | 0.00 | 0.00 | 76 | 1011.6 |
| 20260905100113 | 21 | 22 | 1.6 | 4.8 | 0.00 | 0.00 | 0.00 | 76 | 1011.6 |
| 20260905095537 | 21 | 22 | 1.6 | 4.8 | 0.00 | 0.00 | 0.00 | 77 | 1011.7 |
| 20260905095041 | 21 | 22 | 1.6 | 3.2 | 0.00 | 0.00 | 0.00 | 77 | 1011.6 |
| 20260905094607 | 21 | 22 | 0.0 | 3.2 | 0.00 | 0.00 | 0.00 | 77 | 1011.7 |
| 20260905094037 | 21 | 0 | 0.0 | 3.2 | 0.00 | 0.00 | 0.00 | 77 | 1011.6 |
| 20260905093537 | 21 | 22 | 0.0 | 3.2 | 0.00 | 0.00 | 0.00 | 77 | 1011.6 |
| 20260905093058 | 21 | 22 | 0.0 | 3.2 | 0.00 | 0.00 | 0.00 | 78 | 1011.6 |
| 20260905092539 | 21 | 15 | 1.6 | 3.2 | 0.00 | 0.00 | 0.00 | 78 | 1011.5 |
| 20260905092037 | 21 | 15 | 0.0 | 3.2 | 0.00 | 0.00 | 0.00 | 78 | 1011.4 |
| 20260905091600 | 21 | 0 | 0.0 | 3.2 | 0.00 | 0.00 | 0.00 | 78 | 1011.4 |
| 20260905091036 | 22 | 0 | 0.0 | 3.2 | 0.00 | 0.00 | 0.00 | 79 | 1011.4 |
| 20260905090537 | 22 | 0 | 0.0 | 1.6 | 0.00 | 0.00 | 0.00 | 78 | 1011.4 |
| 20260905090058 | 22 | 0 | 0.0 | 3.2 | 0.00 | 0.00 | 0.00 | 78 | 1011.5 |
| 20260905085537 | 22 | 0 | 0.0 | 3.2 | 0.00 | 0.00 | 0.00 | 77 | 1011.5 |
| 20260905085034 | 22 | 0 | 0.0 | 3.2 | 0.00 | 0.00 | 0.00 | 78 | 1011.4 |
| 20260905084556 | 22 | 0 | 0.0 | 3.2 | 0.00 | 0.00 | 0.00 | 78 | 1011.4 |
| 20260905084037 | 22 | 0 | 0.0 | 3.2 | 0.00 | 0.00 | 0.00 | 77 | 1011.2 |
| 20260905083540 | 22 | 15 | 0.0 | 6.4 | 0.00 | 0.00 | 0.00 | 76 | 1011.3 |
| 20260905083057 | 22 | 15 | 1.6 | 6.4 | 0.00 | 0.00 | 0.00 | 75 | 1011.4 |
| 20260905082538 | 22 | 9 | 1.6 | 4.8 | 0.00 | 0.00 | 0.00 | 75 | 1011.4 |
| 20260905082037 | 22 | 5 | 1.6 | 4.8 | 0.00 | 0.00 | 0.00 | 76 | 1011.4 |
| 20260905081554 | 22 | 360 | 1.6 | 3.2 | 0.00 | 0.00 | 0.00 | 76 | 1011.5 |
| 20260905081037 | 22 | 352 | 0.0 | 3.2 | 0.00 | 0.00 | 0.00 | 77 | 1011.6 |
| 20260905080537 | 22 | 352 | 0.0 | 3.2 | 0.00 | 0.00 | 0.00 | 77 | 1011.6 |
| 20260905080048 | 22 | 0 | 0.0 | 3.2 | 0.00 | 0.00 | 0.00 | 77 | 1011.7 |
| 20260905075537 | 22 | 352 | 0.0 | 6.4 | 0.00 | 0.03 | 0.00 | 77 | 1011.8 |
| 20260905075034 | 22 | 352 | 0.0 | 6.4 | 0.00 | 0.03 | 0.00 | 77 | 1011.6 |
| 20260905074603 | 22 | 352 | 1.6 | 4.8 | 0.00 | 0.03 | 0.00 | 78 | 1011.7 |
| 20260905074036 | 22 | 344 | 1.6 | 4.8 | 0.00 | 0.03 | 0.00 | 78 | 1011.7 |
| 20260905073537 | 22 | 0 | 0.0 | 8.0 | 0.00 | 0.03 | 0.00 | 80 | 1011.7 |
| 20260905073106 | 22 | 321 | 0.0 | 8.0 | 0.00 | 0.03 | 0.00 | 81 | 1011.7 |
| 20260905072537 | 22 | 0 | 0.0 | 3.2 | 0.00 | 0.03 | 0.00 | 81 | 1011.7 |
| 20260905072037 | 22 | 291 | 0.0 | 3.2 | 0.00 | 0.03 | 0.00 | 81 | 1011.7 |
| 20260905071553 | 22 | 0 | 0.0 | 3.2 | 0.00 | 0.03 | 0.00 | 83 | 1011.7 |
| 20260905071039 | 22 | 0 | 0.0 | 3.2 | 0.00 | 0.03 | 0.00 | 83 | 1011.7 |
| 20260905070537 | 22 | 0 | 0.0 | 3.2 | 0.00 | 0.03 | 0.00 | 83 | 1011.7 |
| 20260905070051 | 22 | 292 | 0.0 | 3.2 | 0.00 | 0.03 | 0.00 | 83 | 1011.8 |
| 20260905065536 | 22 | 0 | 0.0 | 3.2 | 0.00 | 0.03 | 0.00 | 83 | 1011.7 |
| 20260905065039 | 22 | 292 | 0.0 | 3.2 | 0.00 | 0.03 | 0.00 | 83 | 1011.8 |
| 20260905064611 | 22 | 292 | 0.0 | 3.2 | 0.00 | 0.03 | 0.00 | 83 | 1011.8 |
| 20260905064036 | 22 | 0 | 0.0 | 0.0 | 0.00 | 0.03 | 0.00 | 83 | 1011.7 |
| 20260905063538 | 22 | 0 | 0.0 | 3.2 | 0.00 | 0.03 | 0.00 | 83 | 1011.6 |
| 20260905063100 | 22 | 0 | 0.0 | 3.2 | 0.00 | 0.03 | 0.00 | 83 | 1011.8 |
| 20260905062536 | 22 | 0 | 0.0 | 3.2 | 0.00 | 0.03 | 0.00 | 83 | 1011.8 |
| 20260905062038 | 23 | 0 | 0.0 | 0.0 | 0.00 | 0.03 | 0.00 | 83 | 1011.8 |
| 20260905061614 | 23 | 0 | 0.0 | 3.2 | 0.00 | 0.03 | 0.00 | 83 | 1011.8 |
| 20260905061037 | 23 | 0 | 0.0 | 3.2 | 0.00 | 0.03 | 0.00 | 83 | 1011.8 |
| 20260905060535 | 23 | 0 | 0.0 | 3.2 | 0.00 | 0.03 | 0.00 | 83 | 1011.9 |
| 20260905060051 | 23 | 0 | 0.0 | 3.2 | 0.00 | 0.03 | 0.00 | 83 | 1011.8 |
| 20260905055536 | 23 | 0 | 0.0 | 3.2 | 0.00 | 0.03 | 0.00 | 83 | 1011.9 |
| 20260905055040 | 23 | 0 | 0.0 | 3.2 | 0.00 | 0.03 | 0.00 | 83 | 1011.9 |
| 20260905054604 | 23 | 81 | 0.0 | 3.2 | 0.00 | 0.03 | 0.00 | 83 | 1011.9 |
| 20260905054033 | 23 | 0 | 0.0 | 3.2 | 0.00 | 0.03 | 0.00 | 83 | 1012.0 |
| 20260905053534 | 23 | 0 | 0.0 | 3.2 | 0.00 | 0.03 | 0.00 | 83 | 1012.1 |
| 20260905053058 | 23 | 78 | 0.0 | 3.2 | 0.00 | 0.03 | 0.00 | 83 | 1012.2 |
| 20260905052539 | 23 | 0 | 0.0 | 3.2 | 0.00 | 0.03 | 0.00 | 82 | 1012.2 |
| 20260905052037 | 23 | 0 | 0.0 | 3.2 | 0.00 | 0.03 | 0.00 | 82 | 1012.3 |
| 20260905051609 | 23 | 0 | 0.0 | 3.2 | 0.00 | 0.03 | 0.00 | 82 | 1012.4 |
| 20260905051038 | 23 | 0 | 0.0 | 3.2 | 0.00 | 0.03 | 0.00 | 82 | 1012.4 |
| 20260905050537 | 23 | 0 | 0.0 | 3.2 | 0.00 | 0.03 | 0.00 | 82 | 1012.5 |
| 20260905045537 | 23 | 0 | 0.0 | 3.2 | 0.00 | 0.03 | 0.00 | 81 | 1012.5 |
| 20260905045037 | 23 | 0 | 0.0 | 3.2 | 0.00 | 0.03 | 0.00 | 81 | 1012.5 |
| 20260905044602 | 23 | 0 | 0.0 | 3.2 | 0.00 | 0.03 | 0.00 | 81 | 1012.4 |
| 20260905044037 | 23 | 0 | 0.0 | 3.2 | 0.00 | 0.03 | 0.00 | 81 | 1012.4 |
| 20260905043538 | 23 | 0 | 0.0 | 3.2 | 0.00 | 0.03 | 0.00 | 81 | 1012.5 |
| 20260905043056 | 23 | 0 | 0.0 | 3.2 | 0.00 | 0.03 | 0.00 | 81 | 1012.4 |
| 20260905042534 | 23 | 0 | 0.0 | 1.6 | 0.00 | 0.03 | 0.00 | 81 | 1012.4 |
| 20260905042036 | 23 | 0 | 0.0 | 1.6 | 0.00 | 0.03 | 0.00 | 81 | 1012.3 |
| 20260905041555 | 23 | 0 | 0.0 | 0.0 | 0.00 | 0.03 | 0.00 | 81 | 1012.4 |
| 20260905041037 | 23 | 0 | 0.0 | 3.2 | 0.00 | 0.03 | 0.00 | 81 | 1012.5 |
| 20260905040537 | 24 | 0 | 0.0 | 3.2 | 0.00 | 0.03 | 0.00 | 81 | 1012.5 |